This is the latest recevied weather packets stored in our database for station/object W4OTS. If no packets are shown the sender has not sent any weather packets the latest 10 day(s).
| Time | Temp. | Humidity | Pressure | Rain* | Wind** | Luminosity | Snow |
|---|---|---|---|---|---|---|---|
| 1777466706 | 15.56° C | 99% | 1015.6 hPa | 0 mm | - | 61 W/m² | - |
| 1777466403 | 15.56° C | 99% | 1015.8 hPa | 0 mm | - | 72 W/m² | - |
| 1777466099 | 15.56° C | 99% | 1015.6 hPa | 0 mm | - | 80 W/m² | - |
| 1777465795 | 15.56° C | 99% | 1015.6 hPa | 0 mm | - | 80 W/m² | - |
| 1777465491 | 15.56° C | 99% | 1015.9 hPa | 0 mm | - | 83 W/m² | - |
| 1777465190 | 15.56° C | 99% | 1015.9 hPa | 0 mm | - | 49 W/m² | - |
| 1777464885 | 15° C | 99% | 1016.1 hPa | 0 mm | - | 36 W/m² | - |
| 1777464581 | 15° C | 99% | 1016.1 hPa | 0 mm | - | 13 W/m² | - |
| 1777464277 | 15° C | 99% | 1015.9 hPa | 0 mm | - | 12 W/m² | - |
| 1777463973 | 15° C | 99% | 1015.9 hPa | 0 mm | - | 7 W/m² | - |
| 1777463668 | 15° C | 99% | 1015.5 hPa | 0 mm | - | 15 W/m² | - |
| 1777463363 | 15° C | 99% | 1015.7 hPa | 0 mm | - | 11 W/m² | - |
| 1777463060 | 15° C | 99% | 1015.5 hPa | 0 mm | - | 11 W/m² | - |
| 1777462755 | 15° C | 99% | 1015.3 hPa | 0 mm | - | 12 W/m² | - |
| 1777462450 | 15° C | 99% | 1015.1 hPa | 0 mm | - | 9 W/m² | - |
| 1777462148 | 15° C | 99% | 1015.3 hPa | 0 mm | - | 9 W/m² | - |
| 1777461844 | 15° C | 99% | 1015.3 hPa | 0 mm | - | 6 W/m² | - |
| 1777461540 | 15° C | 99% | 1015 hPa | 0 mm | - | 6 W/m² | - |
| 1777461236 | 15° C | 99% | 1015 hPa | 0 mm | - | 6 W/m² | - |
| 1777460931 | 15° C | 99% | 1015.1 hPa | 0 mm | - | 6 W/m² | - |
| 1777460627 | 15° C | 99% | 1015.5 hPa | 0 mm | - | 6 W/m² | - |
| 1777460323 | 15° C | 99% | 1015.3 hPa | 0 mm | - | 3 W/m² | - |
| 1777460020 | 15° C | 99% | 1015.6 hPa | 0 mm | - | 2 W/m² | - |
| 1777459717 | 15° C | 99% | 1015.9 hPa | 0 mm | - | 1 W/m² | - |
| 1777459413 | 15° C | 99% | 1016.1 hPa | 0 mm | - | 0 W/m² | - |
* Rain latest hour (hover to see other rain measurements)
** Current wind speed in m/s (hover to see current wind gust speed)